Vertical_Velocity
-2 0 -0 0 -0 -1 1 8 8 8 2 2 -5 1 -2 3 -2 -3 -5 -1 1 0 -0 2 4 -1 -2 -3 1 -1 -2 -1 -0 -1 -2 -0 -2 -1
2 -2 3 2 1 2 2 4 10 7 10 8 -7 -4 -6 8 -2 -2 2 -4 1 1 -1 -3 5 1 -2 -2 -2 -1 -3 1 -1 -0 -1 -2 -3 -1
3 1 -1 4 3 3 3 2 1 12 2 -20 10 16 4 6 10 9 2 -1 -1 2 2 -3 -1 4 -2 1 1 -1 1 -2 -2 -0 1 1 -0 -2
-2 1 -3 -0 2 4 2 1 -1 5 11 -1 3 7 9 -8 9 7 -2 8 -3 -1 2 2 2 1 3 -1 1 -7 3 -2 1 0 -1 0 2 -1
-0 -0 -2 -0 -2 0 1 -1 4 -1 8 3 -16 5 7 -14 9 2 1 4 3 2 2 2 -0 0 4 1 0 0 -1 -0 3 -3 1 -2 3 0
1 -3 1 -2 -2 -3 2 2 1 -1 2 2 -2 -17 4 47 -2 1 3 -0 -3 2 -4 -1 -0 3 5 0 4 1 2 -5 2 0 -1 -2 2 0
-2 0 -0 -1 -2 3 3 1 -0 -2 -1 3 1 -4 -23 -4 -3 -15 2 2 -2 1 -4 -7 0 2 1 5 3 3 2 6 1 3 -4 -1 2 -1
-6 -3 2 -1 -5 -3 -0 2 11 3 -5 0 3 -3 4 -8 2 1 7 16 8 -9 -4 0 0 -4 -1 -5 -6 -7 -1 -3 -1 -2 1 2 1 -1
1 -0 -3 3 4 4 -4 -0 3 4 3 7 -1 -13 -6 -4 5 47 7 -2 -0 -8 10 -3 -4 -6 -2 -4 -3 -1 -3 -1 -1 3 -1 1 -2 5
-2 -1 -3 -5 2 -1 1 -2 -5 -4 -11 -8 -1 6 -13 3 -5 -0 38 58 15 18 6 -8 -1 -18 3 -1 -3 1 1 -5 3 3 -3 2 1 1
-4 -3 -0 -6 -5 6 8 1 0 -11 1 -3 -5 1 2 -6 7 23 -28 20 7 -5 4 -2 -5 -1 -9 -9 -7 1 1 -0 -3 1 2 3 3 5
5 -1 -6 -2 1 1 12 6 -2 -16 2 0 -3 -5 -3 -7 0 6 5 -13 14 33 -10 4 14 3 1 -7 -5 -3 4 1 1 0 7 -0 6 9
-2 -2 0 -3 -2 -3 3 12 -4 10 -9 3 3 2 -5 -3 -11 -4 -9 -1 -8 -9 1 2 -0 -2 -3 -2 -2 -3 -4 -2 -8 -0 3 3 4 4
-1 -10 -10 -2 -6 -6 8 -6 -5 9 5 3 8 -5 -5 -6 -5 -5 8 -1 -5 -18 49 -7 4 -9 -6 4 2 -5 -5 -2 1 3 -2 -3 2 7
-4 3 14 7 3 4 1 1 3 12 8 -1 -10 5 -11 -9 7 -1 4 8 -4 -12 11 24 -10 -2 10 -14 -7 -3 1 -8 0 1 -1 -3 -3 -7
4 -10 -1 6 10 8 7 2 0 2 2 -5 -7 -9 8 6 -9 -3 7 10 11 5 -11 26 2 4 -2 -3 4 2 -4 -9 -5 0 0 7 2 1
8 1 -3 -0 -2 -3 -3 -3 -4 2 -3 -3 2 -6 -5 8 -9 1 -8 4 17 -4 -7 7 20 5 6 1 5 -0 -3 -0 1 -4 6 -1 -1 2
-3 -3 -8 -4 -3 -4 -2 -4 -0 1 -2 -1 -1 -0 -1 -6 1 -1 -1 -2 11 7 -1 -4 15 12 16 14 2 1 7 4 -1 0 -4 3 1 2
0 -5 -3 -1 -5 1 1 2 -3 -3 2 -1 0 -1 0 -2 11 -2 -1 -1 -3 22 -1 -6 0 4 6 -9 3 -4 -2 2 1 2 5 3 -8 -2
9 4 0 -1 -0 3 3 3 2 6 -2 -1 1 -1 -2 -2 9 -4 -3 -8 -5 15 20 -2 2 -7 -25 -31 -17 -13 0 1 -3 3 1 6 2 20
-7 -9 3 1 8 4 3 3 4 5 6 4 1 2 -2 5 3 -3 -1 -4 -3 9 10 -4 -39 28 17 12 19 4 1 11 4 -4 0 9 6 4
3 5 0 5 4 7 5 7 4 4 11 5 1 -3 -1 6 1 -4 1 -3 -12 16 5 21 -0 1 4 3 -4 -4 5 4 8 12 26 17 -20 -28
-0 2 -3 9 4 6 7 7 9 5 16 -0 5 -1 -3 18 -1 -7 -7 1 2 3 12 7 10 9 23 11 -7 -1 7 4 4 4 6 11 6 8
Height
1479 1478 1476 1476 1476 1477 1478 1480 1481 1475 1471 1468 1472 1475 1479 1482 1484 1488 1490 1495 1503 1509 1513 1518 1521 1525 1529 1532 1536 1539 1543 1547 1550 1552 1555 1557 1561 1563
1471 1470 1468 1468 1467 1468 1468 1470 1472 1470 1464 1465 1466 1465 1468 1472 1474 1478 1481 1485 1491 1498 1504 1508 1513 1516 1521 1525 1528 1532 1536 1540 1543 1546 1549 1552 1555 1557
1463 1461 1459 1460 1458 1457 1457 1457 1457 1460 1456 1456 1458 1456 1457 1461 1466 1468 1472 1474 1480 1486 1492 1497 1503 1507 1512 1516 1520 1524 1528 1532 1536 1539 1542 1545 1548 1550
1453 1453 1450 1450 1449 1448 1448 1447 1447 1449 1450 1445 1445 1445 1447 1451 1455 1458 1462 1465 1468 1474 1480 1486 1492 1497 1502 1506 1510 1515 1519 1523 1527 1530 1535 1537 1540 1543
1445 1443 1442 1442 1439 1439 1438 1437 1437 1437 1437 1435 1430 1437 1438 1441 1444 1448 1450 1455 1459 1462 1467 1472 1479 1485 1491 1495 1500 1504 1509 1513 1518 1521 1525 1529 1532 1535
1435 1433 1432 1432 1430 1430 1428 1428 1427 1426 1426 1426 1425 1424 1427 1426 1432 1436 1437 1443 1447 1451 1456 1459 1467 1472 1477 1483 1488 1492 1498 1502 1507 1511 1515 1519 1522 1526
1425 1423 1422 1421 1420 1420 1419 1417 1418 1418 1416 1416 1416 1417 1416 1419 1417 1422 1424 1429 1432 1440 1443 1447 1454 1459 1462 1468 1474 1479 1484 1489 1495 1499 1504 1508 1512 1515
1414 1412 1411 1411 1409 1410 1409 1408 1409 1408 1405 1405 1404 1404 1403 1409 1412 1407 1408 1415 1419 1424 1432 1436 1441 1443 1448 1452 1458 1464 1470 1476 1483 1487 1492 1496 1501 1504
1405 1402 1400 1398 1399 1398 1397 1396 1395 1396 1395 1396 1391 1388 1390 1393 1403 1397 1395 1404 1402 1410 1419 1423 1428 1431 1435 1439 1445 1451 1456 1463 1469 1473 1479 1483 1488 1492
1394 1392 1389 1385 1385 1386 1385 1382 1380 1379 1380 1382 1379 1375 1378 1381 1386 1387 1384 1392 1395 1398 1404 1408 1414 1418 1423 1427 1432 1438 1444 1449 1456 1460 1466 1471 1475 1480
1383 1381 1378 1374 1372 1375 1374 1369 1368 1364 1367 1367 1364 1365 1366 1369 1372 1379 1376 1375 1381 1384 1387 1394 1400 1407 1409 1413 1419 1425 1431 1437 1441 1447 1453 1456 1462 1468
1373 1369 1367 1365 1362 1361 1361 1358 1353 1350 1354 1354 1352 1351 1351 1353 1357 1360 1361 1363 1369 1370 1369 1379 1386 1393 1397 1400 1406 1412 1417 1422 1429 1433 1438 1440 1448 1454
1361 1356 1353 1352 1350 1348 1347 1344 1340 1340 1340 1341 1338 1337 1337 1338 1339 1345 1348 1351 1355 1360 1358 1368 1375 1379 1383 1388 1391 1396 1402 1409 1414 1420 1424 1428 1433 1439
1351 1345 1340 1337 1335 1333 1332 1329 1327 1328 1326 1324 1322 1319 1321 1321 1322 1329 1336 1336 1340 1345 1354 1356 1362 1364 1370 1375 1380 1384 1388 1395 1401 1406 1412 1417 1422 1426
1340 1332 1327 1322 1319 1315 1313 1311 1310 1309 1308 1306 1303 1302 1302 1305 1311 1317 1322 1326 1326 1331 1341 1342 1348 1353 1359 1362 1367 1372 1378 1381 1388 1393 1399 1405 1409 1415
1325 1316 1311 1306 1302 1297 1294 1291 1289 1287 1288 1286 1285 1284 1290 1292 1294 1300 1305 1310 1313 1315 1324 1330 1333 1341 1345 1352 1357 1361 1367 1372 1377 1380 1389 1395 1399 1405
1314 1304 1296 1290 1283 1279 1274 1269 1266 1266 1267 1267 1266 1267 1271 1276 1277 1284 1289 1295 1297 1299 1305 1317 1320 1325 1335 1340 1345 1348 1355 1361 1366 1370 1377 1382 1389 1394
1301 1293 1284 1277 1270 1263 1257 1251 1247 1245 1244 1245 1245 1247 1251 1257 1260 1267 1273 1279 1281 1282 1289 1299 1303 1314 1319 1327 1334 1337 1343 1349 1356 1361 1367 1372 1378 1382
1291 1282 1274 1265 1255 1247 1239 1232 1225 1222 1224 1225 1224 1225 1230 1237 1243 1248 1254 1261 1265 1267 1274 1279 1290 1299 1307 1310 1319 1325 1332 1338 1345 1352 1355 1360 1368 1373
1282 1272 1262 1251 1241 1231 1221 1211 1203 1199 1198 1196 1198 1201 1208 1215 1222 1228 1236 1243 1249 1254 1256 1262 1273 1280 1286 1292 1303 1314 1320 1327 1332 1340 1343 1350 1357 1363
1272 1261 1250 1238 1228 1215 1203 1192 1182 1174 1169 1167 1171 1179 1187 1195 1201 1210 1218 1226 1236 1241 1241 1242 1249 1264 1281 1295 1299 1301 1307 1314 1321 1327 1332 1339 1346 1350
1264 1251 1238 1226 1215 1201 1187 1173 1162 1154 1147 1148 1152 1160 1169 1176 1184 1193 1203 1210 1218 1223 1227 1235 1245 1258 1269 1276 1282 1287 1294 1302 1310 1318 1324 1328 1332 1336
1256 1242 1228 1219 1204 1188 1173 1159 1148 1138 1133 1133 1138 1144 1153 1159 1168 1179 1189 1196 1204 1212 1221 1224 1231 1246 1259 1266 1268 1279 1284 1292 1298 1306 1313 1319 1323 1328